Regional Weather Roundup
Issued by NWS Sterling, VA

Home | Current Version | Previous Version | Graphics & Text | Print | Product List | Glossary On
Versions: 1 2 3 4 5 6 7 8 9 10 11 12 13 14 15 16 17 18 19 20 21 22 23 24 25 26 27 28
000
ASUS41 KLWX 260611
RWRLWX

REGIONAL WEATHER ROUNDUP
NATIONAL WEATHER SERVICE BALTIMORE MD/WASHINGTON DC
200 AM EDT WED JUL 26 2017

Note: "FAIR" indicates few or no clouds below 12,000 feet
with no significant weather and/or obstructions to visibility.
 TC=TEMPERATURE CELSIUS

 * =Non NWS site. Station does not report precipitation (e.g. rain,
    snow, etc.), thunder, or fog.

DCZ001-MDZ009-015-VAZ040>042-051-053>054-260700-
WASHINGTON METRO

CITY           SKY/WX    TMP DP  RH WIND       PRES   REMARKS
WASHINGTON NAT PTCLDY    73  63  70 NE9       30.20S
DULLES         CLEAR     64  60  87 W3        30.21S
ANDREWS AFB    CLEAR     65  61  85 N6        30.19S
FT BELVOIR     CLEAR     65  62  92 CALM      30.19S
QUANTICO       CLEAR     69  65  86 NW5       30.20S
COLLEGE PARK*  CLEAR     64  62  95 CALM      30.20S
LEESBURG*      CLEAR     64  63  94 CALM      30.22S
MANASSAS*      MOCLDY    61  60  97 CALM      30.21S
GAITHERSBURG*  CLEAR     61  60  97 CALM      30.22S

$$

MDZ006>007-011-014-260700-
BALTIMORE METRO

CITY           SKY/WX    TMP DP  RH WIND       PRES   REMARKS
BWI AIRPORT    PTCLDY    64  62  93 NW3       30.19S
MD SCIENCE CTR   N/A     73  62  68 MISG      30.20S
MARTIN STATE   PTCLDY    68  64  88 CALM      30.21S
ANNAPOLIS      CLEAR     73  69  87 N7        30.18S
FORT MEADE*    CLEAR     61  61 100 CALM      30.22F

$$

MDZ012-015-019>023-260700-
MARYLAND EASTERN SHORE

CITY           SKY/WX    TMP DP  RH WIND       PRES   REMARKS
OCEAN CITY     PTCLDY    71  67  87 E5        30.17F
SALISBURY      MOCLDY    68  67  96 CALM      30.18S
BAY BRIDGE AP* MOCLDY    72  64  78 SE5       30.19R
CAMBRIDGE*     CLOUDY    68  66  94 CALM      30.18S
EASTON*        MOCLDY    69  66  90 CALM      30.23R

$$

MDZ017>025-260700-
SOUTHERN MARYLAND

CITY           SKY/WX    TMP DP  RH WIND       PRES   REMARKS
PATUXENT RIVER MOCLDY    73  69  87 E7        30.17S
ST INIGOES     CLOUDY    74  68  81 NE3       30.16S
LEONARDTOWN*   CLEAR     68  63  83 CALM      30.19S

$$

MDZ003>005-260700-
NORTH CENTRAL MARYLAND

CITY           SKY/WX    TMP DP  RH WIND       PRES   REMARKS
FREDERICK*       N/A     63  63 100 CALM      30.24S FOG
HAGERSTOWN APT PTCLDY    69  62  78 NE5       30.22F
WESTMINSTER*   CLEAR     64  61  88 CALM      30.22F

$$

MDZ501>502-260700-
WESTERN MARYLAND

CITY           SKY/WX    TMP DP  RH WIND       PRES   REMARKS
OAKLAND*         N/A     54  52  94 E6        30.25F
CUMBERLAND*    CLEAR     61  61 100 CALM      30.27S

$$

VAZ025>031-260700-
SHENANDOAH VALLEY

CITY           SKY/WX    TMP DP  RH WIND       PRES   REMARKS
WINCHESTER*    CLEAR     59  57  94 CALM      30.22S
FRONT ROYAL*   CLEAR     61  59  94 S3        30.22S
LURAY*         CLOUDY    63  59  88 CALM      30.24S
NEW MARKET*    CLOUDY    63  60  90 CALM      30.23S
STAUNTON*      MOCLDY    62  57  84 CALM      30.25F
WAYNESBORO*    PTCLDY    62  59  90 CALM      30.25S

$$

WVZ021-048>050-054>055-260700-
EASTERN WEST VIRGINIA PANHANDLE

CITY           SKY/WX    TMP DP  RH WIND       PRES   REMARKS
MARTINSBURG    CLEAR     59  58  96 CALM      30.21S FOG
PETERSBURG*    CLEAR     60  58  94 CALM      30.25S

$$

VAZ036>039-050-260700-
CENTRAL FOOTHILLS

CITY           SKY/WX    TMP DP  RH WIND       PRES   REMARKS
CHARLOTTESVILL PTCLDY    66  61  84 CALM      30.21F
CULPEPER*      CLOUDY    64  62  93 CALM      30.22S
ORANGE*        PTCLDY    64  59  82 CALM      30.21S
GORDONSVILLE*  PTCLDY    64  61  91 CALM      30.20S
WARRENTON*     PTCLDY    60  57  90 CALM      30.20F FOG

$$

VAZ055>057-260700-
NORTH AND CENTRAL PIEDMONT

CITY           SKY/WX    TMP DP  RH WIND       PRES   REMARKS
FREDERICKSBRG* PTCLDY    68  63  83 CALM      30.18F
STAFFORD*      PTCLDY    65  64  97 N6        30.23S

$$

NCZ024-NYZ072-PAZ021-071-VAZ022-071-260700-
OTHER REGIONAL OBSERVATIONS

CITY           SKY/WX    TMP DP  RH WIND       PRES   REMARKS
NEW YORK CITY  CLOUDY    67  57  70 VRB6      30.26R
PHILADELPHIA   CLOUDY    68  63  84 NE6       30.22S
PITTSBURGH     CLEAR     62  60  93 CALM      30.21F
ROANOKE        MOCLDY    70  61  73 SE7       30.23S
RICHMOND       MOCLDY    69  63  81 N7        30.17F
RALEIGH        MOCLDY    78  70  76 E13       30.14R

$$

ANZ530>537-260700-
MARINE OBSERVATIONS

STATION/POSITION TIME  TEMP    WIND        PRES
                       AIR SEA DIR/SP/G
                 (UTC) (F)     (DEG/KT/KT) (MB)
THOMAS PT LIGHT  0600   74 81   70/  5/  6   N/A
BALT KEY BRIDGE  0548           20/ 10/ 11 1022.0F
COVE POINT       0548          130/  6/  8 1022.4F
LEWISETTA        0536          240/  2/  3 1021.4S
SOLOMONS ISLAND  0548           40/  6/  8   N/A
PINEY POINT      0542           60/  5/  6   N/A

$$





USA.gov is the U.S. government's official web portal to all federal, state and local government web resources and services.